Terminal Aerodrome Forecast
Issued by NWS

Home | Current Version | Previous Version | Text Only | Print | Product List | Glossary On
Versions: 1 2 3 4 5 6 7 8 9 10 11 12 13 14 15 16 17 18 19 20 21 22 23 24 25
000
FTUS42 KFFC 161300 AAA
TAFPDK
TAF AMD
KPDK 161358Z 1614/1712 30006KT 6SM BR BKN015
     FM161700 33008KT P6SM SCT025 BKN050
     FM161900 33009KT P6SM VCSH SCT050 BKN120
     FM170200 34005KT P6SM SCT120 BKN250=

USA.gov is the U.S. government's official web portal to all federal, state and local government web resources and services.